Weather History for KREO - October, 2012

Change the Weather History Date:

Sunday, October 14, 2012

  Actual Average Record
Temperature  
Mean Temperature 56 °F 48 °F  
Max Temperature 77 °F 66 °F 86 °F (2005)
Min Temperature 34 °F 31 °F 21 °F (1966)
Degree Days  
Heating Degree Days 9 17  
Month to date heating degree days 193 199  
Since 1 July heating degree days 250 423  
Cooling Degree Days 0 0  
Month to date cooling degree days 0 0  
Year to date cooling degree days 674 506  
Growing Degree Days 8 (Base 50)    
Moisture  
Dew Point 32 °F    
Average Humidity 47    
Maximum Humidity 76    
Minimum Humidity 18    
Precipitation  
Precipitation 0.00 in 0.03 in 0.33 in (1962)
Month to date precipitation 0.00 0.29  
Year to date precipitation 4.28 7.02  
Sea Level Pressure  
Sea Level Pressure 30.16 in    
Wind  
Wind Speed 8 mph (South)    
Max Wind Speed 18 mph    
Max Gust Speed 24 mph    
T = Trace of Precipitation, MM = Missing Value Source: NWS Daily Summary

Daily Weather History Graph

Daily Weather History Graph

Search for Another Location

Airport or City:

Trip Planner

Search our weather history database for the weather conditions in past years. The results will help you decide how hot, cold, wet, or windy it might be!

Date:

Astronomy

Oct. 14, 2012 Rise Set
Actual Time 7:04 AM PDT 6:09 PM PDT
Civil Twilight 6:35 AM PDT 6:38 PM PDT
Nautical Twilight 6:02 AM PDT 7:10 PM PDT
Astronomical Twilight 5:30 AM PDT 7:43 PM PDT
Moon 6:08 AM PDT (10/14) 5:32 PM PDT (10/14)
Length of Visible Light 12h 02m
Length of Day
11h 05m
Waning Crescent, 1% of the Moon is Illuminated
Oct 14
Waning Crescent
Oct 15
New
Oct 21
First Quarter
Oct 29
Full
Nov 6
Last Quarter

Hourly Weather History & Observations

Time (PDT) Temp. Windchill Dew Point Humidity Pressure Visibility Wind Dir Wind Speed Gust Speed Precip Events Conditions
12:52 AM 41.0 °F - 30.9 °F 67% 30.29 in - Calm Calm - N/A   Unknown
1:52 AM 42.1 °F 37.1 °F 33.1 °F 70% 30.28 in - SSE 8.1 mph - N/A   Unknown
2:52 AM 45.0 °F 41.8 °F 35.1 °F 68% 30.25 in - South 5.8 mph - N/A   Unknown
3:52 AM 39.9 °F 36.7 °F 30.9 °F 70% 30.27 in - SSW 4.6 mph - N/A   Unknown
4:52 AM 39.0 °F 33.4 °F 30.9 °F 73% 30.27 in - South 8.1 mph - N/A   Unknown
5:52 AM 39.0 °F 34.0 °F 32.0 °F 76% 30.26 in - SE 6.9 mph - N/A   Unknown
6:52 AM 39.0 °F 35.7 °F 32.0 °F 76% 30.29 in - NW 4.6 mph - N/A   Unknown
7:52 AM 39.0 °F - 30.0 °F 70% 30.29 in - Calm Calm - N/A   Unknown
8:52 AM 50.0 °F - 34.0 °F 54% 30.27 in - Calm Calm - N/A   Unknown
9:52 AM 57.0 °F - 35.1 °F 44% 30.25 in - NW 4.6 mph - N/A   Unknown
10:52 AM 64.0 °F - 37.0 °F 37% 30.21 in - Calm Calm - N/A   Unknown
11:52 AM 70.0 °F - 36.0 °F 29% 30.18 in - WSW 6.9 mph - N/A   Unknown
12:52 PM 75.0 °F - 35.1 °F 23% 30.14 in - South 11.5 mph 18.4 mph N/A   Unknown
1:52 PM 75.9 °F - 32.0 °F 20% 30.11 in - SW 15.0 mph 21.9 mph N/A   Unknown
2:52 PM 77.0 °F - 30.9 °F 19% 30.08 in - SW 16.1 mph 20.7 mph N/A   Unknown
3:52 PM 73.0 °F - 30.0 °F 20% 30.09 in - SSW 10.4 mph - N/A   Unknown
4:52 PM 73.0 °F - 28.0 °F 19% 30.07 in - South 9.2 mph - N/A   Unknown
5:52 PM 70.0 °F - 30.0 °F 23% 30.05 in - SE 9.2 mph - N/A   Unknown
6:52 PM 68.0 °F - 28.9 °F 23% 30.04 in - SSE 10.4 mph - N/A   Unknown
7:52 PM 66.9 °F - 30.0 °F 25% 30.05 in - South 10.4 mph - N/A   Unknown
8:52 PM 66.0 °F - 28.9 °F 25% 30.03 in - South 13.8 mph - N/A   Unknown
9:52 PM 61.0 °F - 28.9 °F 30% 30.02 in - South 10.4 mph - N/A   Unknown
10:52 PM 61.0 °F - 30.0 °F 31% 29.99 in - South 9.2 mph - N/A   Unknown
11:52 PM 57.9 °F - 28.9 °F 33% 29.98 in - Calm Calm - N/A   Unknown